Regional Weather Roundup
Issued by NWS

Home | Current Version | Previous Version | Text Only | Print | Product List | Glossary On
Versions: 1 2 3 4 5 6 7 8 9 10 11 12 13 14 15 16 17 18 19 20 21 22 23 24 25 26 27 28 29 30 31 32 33 34 35 36 37 38 39 40 41 42 43 44 45 46 47 48 49 50
664
ASUS44 KLIX 241301
RWRLA
LOUISIANA WEATHER ROUNDUP
NATIONAL WEATHER SERVICE NEW ORLEANS LA
800 AM CDT THU APR 24 2014

NOTE: "FAIR" INDICATES FEW OR NO CLOUDS BELOW 12,000 FEET WITH NO
      SIGNIFICANT WEATHER AND/OR OBSTRUCTIONS TO VISIBILITY.
      SKY/WX - SKY CONDITION AND SIGNIFICANT WEATHER.
      TMP - AIR TEMPERATURE.    DP   - DEWPOINT TEMPERATURE.
      RH  - RELATIVE HUMIDITY.  PRES - PRESSURE.
      HX  - HEAT INDEX.         WCI  - WIND CHILL INDEX.

*  THESE STATIONS ARE NOT NWS OR FAA STATIONS AND ARE NOT UNDER
   NWS QUALITY CONTROL.

LAZ040-048-061>063-065-066-069-241400-
SOUTHEAST LOUISIANA

CITY           SKY/WX    TMP DP  RH WIND       PRES   REMARKS
N.O. AUDUBON     N/A     71  65  82 MISG        N/A
N.O. INTL ARPT FOG       67  66  97 CALM      29.96R VSB 1/8
N.O. LAKEFRONT MOSUNNY   69  67  93 S5        29.96R FOG
N.O. DOWNTOWN* PTSUNNY   70  63  78 S3        29.96R
SLIDELL        FOG       62  61  96 CALM      29.95R VSB 1/4
BATON ROUGE    FOG       65  63  93 E5        29.95R VSB<1/4
BOOTHVILLE     MOSUNNY   69  66  90 E3        29.97R FOG
BELLE CHASSE   PTSUNNY   66  63  90 CALM      29.95R FOG
BOGALUSA*      FOG       62  59  91 W5        29.98R VSB<1/4
GALLIANO*      NOT AVBL
NEW ROADS*     NOT AVBL
GONZALES*      FOG       63  63 100 CALM      29.95R VSB<1/4
HAMMOND*       NOT AVBL
HOUMA*         MOSUNNY   64  63  94 CALM      29.95R FOG
PORT FOURCHON* MOSUNNY   72  68  88 SE6       29.97R

$$

LAZ041-044-053-054-241400-
SOUTHWEST LOUISIANA

CITY           SKY/WX    TMP DP  RH WIND       PRES   REMARKS
LAKE CHARLES   MOSUNNY   70  67  90 CALM      29.93R
LAFAYETTE      FOG      N/A N/A N/A CALM      29.94R VSB 3/4
PATTERSON      SUNNY     66  66 100 SE5       29.96R
SALT POINT       N/A     71  69  93 SE3       29.92R
NEW IBERIA     MOSUNNY   66  65  96 CALM      29.94R
CHENAULT AIRPK NOT AVBL

$$

LAZ027-028-241400-
CENTRAL LOUISIANA

CITY           SKY/WX    TMP DP  RH WIND       PRES   REMARKS
FORT POLK      CLOUDY    66  65  96 S6        29.92R FOG
ALEXANDRIA INT CLOUDY    67  61  81 S7        29.92R HAZE
ALEXANDRIA     CLOUDY    67  63  87 SW7       29.94R

$$

LAZ001-002-241400-
NORTHWEST LOUISIANA

CITY           SKY/WX    TMP DP  RH WIND       PRES   REMARKS
SHREVEPORT     CLOUDY    65  63  93 S6        29.87R FOG
BARKSDALE AFB  NOT AVBL
DTN SHREVEPORT PTSUNNY   65  62  90 SE8       29.87S

$$

LAZ014-016-241400-
NORTHEAST LOUISIANA

CITY           SKY/WX    TMP DP  RH WIND       PRES   REMARKS
MONROE         CLOUDY    61  59  94 S3        29.93S FOG
TALLULAH       SUNNY     63  56  78 SE3       29.94R

$$




USA.gov is the U.S. government's official web portal to all federal, state and local government web resources and services.